Home   Weather   Burlington   Past weeks

Flag for Canada Past Weather in Burlington, Ontario, Canada — Yesterday and Last 2 Weeks

Now
28 °F

Chilly.


Feels Like: 18 °F
Forecast: 28 / 36 °F
Wind: 10 mph from West

Location: Burlington Piers

Current Time: Feb 26, 2017 at 2:38:29 am

Latest Report: Feb 26, 2017 at 2:00 am


Visibility: N/A

Pressure: 29.90 "Hg

Humidity: 68%

Dew Point: 18 °F

Location of BurlingtonLocation

Past Weather in Burlington — Graph

°F

Burlington Temperature Yesterday

Maximum temperature yesterday: 48 °F (at 8:00 am)
Minimum temperature yesterday: 29 °F (at 11:00 pm)
Average temperature yesterday: 38 °F

High & Low Weather Summary for the Past Weeks

 TemperatureHumidityPressure
High60 °F (Feb 23, 4:00 pm)100% (Feb 12, 6:00 am)30.39 "Hg (Feb 12, 6:00 am)
Low20 °F (Feb 16, 9:00 am)41% (Feb 19, 2:00 pm)29.43 "Hg (Feb 25, 7:00 am)
Average36 °F75%29.82 "Hg
* Reported Feb 11 1:00 am — Feb 26 1:00 am, Burlington, Weather by CustomWeather, © 2017

Note: Actual official high and low records may vary slightly from our data, if they occured in-between our weather recording intervals... More about our weather records

Advertising

Burlington Weather History for the Previous 24 Hours

Scroll right to see more
 ConditionsComfort  
Time TempWeatherWind HumidityBarometerVisibility
1:00 am
Sun, Feb 26
28 °FChilly.13 mph70%29.88 "HgN/A
12:00 am29 °FChilly.10 mph68%29.86 "HgN/A
11:00 pm
Sat, Feb 25
29 °FChilly.14 mph68%29.84 "HgN/A
10:00 pm29 °FChilly.12 mph73%29.83 "HgN/A
9:00 pm31 °FChilly.10 mph67%29.79 "HgN/A
8:00 pm31 °FChilly.12 mph68%29.74 "HgN/A
7:00 pm33 °FChilly.13 mph58%29.68 "HgN/A
6:00 pm35 °FChilly.15 mph57%29.63 "HgN/A
5:00 pm34 °FChilly.16 mph71%29.61 "HgN/A
4:00 pm37 °FChilly.13 mph64%29.57 "HgN/A
3:00 pm39 °FChilly.14 mph67%29.55 "HgN/A
2:00 pm44 °FQuite cool.13 mph56%29.50 "HgN/A
1:00 pm45 °FCool.18 mph60%29.48 "HgN/A
12:00 pm45 °FQuite cool.12 mph64%29.49 "HgN/A
11:00 am43 °FQuite cool.9 mph67%29.49 "HgN/A
10:00 am43 °FQuite cool.7 mph77%29.48 "HgN/A
9:00 am42 °FQuite cool.10 mph100%29.46 "HgN/A
8:00 am48 °FCool.8 mph98%29.44 "HgN/A
7:00 am39 °FChilly.2 mph98%29.43 "HgN/A
6:00 am38 °FChilly.3 mph98%29.44 "HgN/A
5:00 am38 °FChilly.6 mph98%29.46 "HgN/A
4:00 am37 °FChilly.7 mph98%29.48 "HgN/A
3:00 am38 °FChilly.8 mph99%29.52 "HgN/A
2:00 am38 °FChilly.7 mph99%29.54 "HgN/A
Weather by CustomWeather, © 2017

See weather overviewHow to use our weather pages